Time,TemperatureF,DewpointF,PressureIn,WindDirection,WindDirectionDegrees,WindSpeedMPH,WindSpeedGustMPH,Humidity,HourlyPrecipIn,Conditions,Clouds,dailyrainin,SoftwareType,DateUTC
2013-08-04 00:01:00,64.2,62.8,29.88,West,272,0.0,0.0,95,0.00,,,0.00,meteobridge,2013-08-04 04:01:00,
2013-08-04 00:02:00,64.2,62.8,29.88,West,272,0.0,0.0,95,0.00,,,0.00,meteobridge,2013-08-04 04:02:00,
2013-08-04 00:03:00,64.2,62.8,29.88,West,272,0.0,0.9,95,0.00,,,0.00,meteobridge,2013-08-04 04:03:00,
2013-08-04 00:06:00,64.2,63.1,29.88,West,272,0.0,0.0,96,0.00,,,0.00,meteobridge,2013-08-04 04:06:00,
2013-08-04 00:11:00,64.2,63.1,29.88,West,272,0.0,0.0,96,0.00,,,0.00,meteobridge,2013-08-04 04:11:00,
2013-08-04 00:17:00,64.0,63.0,29.88,West,272,0.0,0.0,96,0.00,,,0.00,meteobridge,2013-08-04 04:17:00,
2013-08-04 00:22:00,64.0,63.0,29.88,West,272,0.0,0.0,96,0.00,,,0.00,meteobridge,2013-08-04 04:22:00,
2013-08-04 00:28:00,64.0,63.0,29.88,West,281,0.0,0.0,96,0.00,,,0.00,meteobridge,2013-08-04 04:28:00,
2013-08-04 00:34:00,64.0,63.0,29.88,West,281,0.0,0.0,96,0.00,,,0.00,meteobridge,2013-08-04 04:34:00,
2013-08-04 00:39:00,63.9,62.8,29.88,West,281,0.0,0.0,96,0.00,,,0.00,meteobridge,2013-08-04 04:39:00,
2013-08-04 00:44:00,63.9,62.8,29.88,NW,306,0.9,0.9,96,0.00,,,0.00,meteobridge,2013-08-04 04:44:00,
2013-08-04 00:50:00,63.9,62.8,29.88,NNE,12,0.0,0.9,96,0.00,,,0.00,meteobridge,2013-08-04 04:50:00,
2013-08-04 00:56:00,63.7,62.6,29.88,NNE,12,0.0,0.9,96,0.00,,,0.00,meteobridge,2013-08-04 04:56:00,
2013-08-04 01:01:00,63.7,62.6,29.88,NNE,12,0.0,0.0,96,0.00,,,0.00,meteobridge,2013-08-04 05:01:00,
2013-08-04 01:06:00,63.3,62.2,29.88,NNE,12,0.0,0.0,96,0.00,,,0.00,meteobridge,2013-08-04 05:06:00,
2013-08-04 01:12:00,63.3,62.2,29.88,NNE,12,0.0,0.0,96,0.00,,,0.00,meteobridge,2013-08-04 05:12:00,
2013-08-04 01:17:00,63.1,62.1,29.87,NNE,12,0.0,0.0,96,0.00,,,0.00,meteobridge,2013-08-04 05:17:00,
2013-08-04 01:22:00,63.1,62.1,29.87,NNE,12,0.0,0.0,96,0.00,,,0.00,meteobridge,2013-08-04 05:22:00,
2013-08-04 01:27:00,63.0,61.9,29.87,NNE,12,0.9,2.0,96,0.00,,,0.00,meteobridge,2013-08-04 05:27:00,
2013-08-04 01:33:00,62.8,61.7,29.87,NNE,12,0.0,0.0,96,0.00,,,0.00,meteobridge,2013-08-04 05:33:00,
2013-08-04 01:38:00,62.8,61.7,29.87,NNE,12,0.0,0.0,96,0.00,,,0.00,meteobridge,2013-08-04 05:38:00,
2013-08-04 01:43:00,62.4,61.3,29.87,NNE,12,0.0,0.0,96,0.00,,,0.00,meteobridge,2013-08-04 05:43:00,
2013-08-04 01:49:00,62.2,61.2,29.87,NNE,12,0.0,0.0,96,0.00,,,0.00,meteobridge,2013-08-04 05:49:00,
2013-08-04 01:54:00,62.2,61.2,29.87,NNE,12,0.0,0.0,96,0.00,,,0.00,meteobridge,2013-08-04 05:54:00,
2013-08-04 01:59:00,62.1,61.0,29.87,NNE,12,0.0,0.0,96,0.00,,,0.00,meteobridge,2013-08-04 05:59:00,
2013-08-04 02:05:00,61.9,60.8,29.87,NNE,12,0.0,0.0,96,0.00,,,0.00,meteobridge,2013-08-04 06:05:00,
2013-08-04 02:10:00,61.9,60.8,29.87,NNE,12,0.0,0.0,96,0.00,,,0.00,meteobridge,2013-08-04 06:10:00,
2013-08-04 02:16:00,61.5,60.4,29.87,NNE,12,0.0,0.0,96,0.00,,,0.00,meteobridge,2013-08-04 06:16:00,
2013-08-04 02:21:00,61.5,60.4,29.87,NNE,12,0.0,0.0,96,0.00,,,0.00,meteobridge,2013-08-04 06:21:00,
2013-08-04 02:26:00,61.3,60.4,29.87,NNE,12,0.0,0.0,97,0.00,,,0.00,meteobridge,2013-08-04 06:26:00,
2013-08-04 02:32:00,61.3,60.4,29.87,NNE,12,0.0,0.0,97,0.00,,,0.00,meteobridge,2013-08-04 06:32:00,
2013-08-04 02:37:00,61.3,60.4,29.87,NNE,12,0.0,0.0,97,0.00,,,0.00,meteobridge,2013-08-04 06:37:00,
2013-08-04 02:42:00,61.2,60.1,29.87,NNE,12,0.0,0.0,96,0.00,,,0.00,meteobridge,2013-08-04 06:42:00,
2013-08-04 02:47:00,61.0,59.9,29.87,NNE,12,0.0,0.0,96,0.00,,,0.00,meteobridge,2013-08-04 06:47:00,
2013-08-04 02:52:00,60.8,59.7,29.87,NNE,12,0.0,0.0,96,0.00,,,0.00,meteobridge,2013-08-04 06:52:00,
2013-08-04 02:58:00,60.6,59.5,29.87,NNE,12,0.0,0.0,96,0.00,,,0.00,meteobridge,2013-08-04 06:58:00,
2013-08-04 03:04:00,60.4,59.4,29.87,NNE,12,0.0,0.0,96,0.00,,,0.00,meteobridge,2013-08-04 07:04:00,
2013-08-04 03:09:00,60.4,59.4,29.87,NNE,12,0.0,0.0,96,0.00,,,0.00,meteobridge,2013-08-04 07:09:00,
2013-08-04 03:15:00,60.3,59.2,29.87,NNE,12,0.0,0.0,96,0.00,,,0.00,meteobridge,2013-08-04 07:15:00,
2013-08-04 03:20:00,60.1,59.0,29.87,NNE,12,0.0,0.0,96,0.00,,,0.00,meteobridge,2013-08-04 07:20:00,
2013-08-04 03:25:00,60.1,59.0,29.87,NNE,12,0.0,0.0,96,0.00,,,0.00,meteobridge,2013-08-04 07:25:00,
2013-08-04 03:31:00,59.9,58.8,29.87,NNE,12,0.0,0.0,96,0.00,,,0.00,meteobridge,2013-08-04 07:31:00,
2013-08-04 03:37:00,59.7,58.6,29.87,NNE,12,0.0,0.0,96,0.00,,,0.00,meteobridge,2013-08-04 07:37:00,
2013-08-04 03:42:00,59.5,58.5,29.87,NNE,12,0.0,0.0,96,0.00,,,0.00,meteobridge,2013-08-04 07:42:00,
2013-08-04 03:48:00,59.5,58.5,29.87,NNE,12,0.0,0.0,96,0.00,,,0.00,meteobridge,2013-08-04 07:48:00,
2013-08-04 03:53:00,59.5,58.5,29.87,NNE,12,0.0,0.0,96,0.00,,,0.00,meteobridge,2013-08-04 07:53:00,
2013-08-04 03:59:00,59.4,58.5,29.87,NNE,12,0.0,0.0,97,0.00,,,0.00,meteobridge,2013-08-04 07:59:00,
2013-08-04 04:05:00,59.2,58.1,29.87,NNE,12,0.0,0.0,96,0.00,,,0.00,meteobridge,2013-08-04 08:05:00,
2013-08-04 04:10:00,59.2,58.3,29.87,NNE,12,0.0,0.0,97,0.00,,,0.00,meteobridge,2013-08-04 08:10:00,
2013-08-04 04:15:00,59.2,58.3,29.87,NNE,12,0.0,0.0,97,0.00,,,0.00,meteobridge,2013-08-04 08:15:00,
2013-08-04 04:20:00,59.0,58.1,29.87,NNE,12,0.0,0.0,97,0.00,,,0.00,meteobridge,2013-08-04 08:20:00,
2013-08-04 04:26:00,58.8,57.9,29.87,NNE,12,0.0,0.0,97,0.00,,,0.00,meteobridge,2013-08-04 08:26:00,
2013-08-04 04:31:00,58.8,57.9,29.87,NNE,12,0.0,0.0,97,0.00,,,0.00,meteobridge,2013-08-04 08:31:00,
2013-08-04 04:36:00,58.6,57.7,29.87,NNE,12,0.0,0.0,97,0.00,,,0.00,meteobridge,2013-08-04 08:36:00,
2013-08-04 04:42:00,58.6,57.7,29.86,NNE,12,0.0,0.0,97,0.00,,,0.00,meteobridge,2013-08-04 08:42:00,
2013-08-04 04:48:00,58.6,57.7,29.86,NNE,12,0.0,0.0,97,0.00,,,0.00,meteobridge,2013-08-04 08:48:00,
2013-08-04 04:53:00,58.6,57.7,29.86,NNE,12,0.0,0.0,97,0.00,,,0.00,meteobridge,2013-08-04 08:53:00,
2013-08-04 04:58:00,58.5,57.6,29.86,NNE,12,0.0,0.0,97,0.00,,,0.00,meteobridge,2013-08-04 08:58:00,
2013-08-04 05:04:00,58.5,57.6,29.86,NNE,12,0.0,0.0,97,0.00,,,0.00,meteobridge,2013-08-04 09:04:00,
2013-08-04 05:10:00,58.3,57.4,29.86,NNE,12,0.0,0.0,97,0.00,,,0.00,meteobridge,2013-08-04 09:10:00,
2013-08-04 05:15:00,58.3,57.4,29.87,NNE,12,0.0,0.0,97,0.00,,,0.00,meteobridge,2013-08-04 09:15:00,
2013-08-04 05:20:00,58.3,57.4,29.87,NNE,12,0.0,0.0,97,0.00,,,0.00,meteobridge,2013-08-04 09:20:00,
2013-08-04 05:25:00,57.9,57.0,29.87,NNE,12,0.0,0.0,97,0.00,,,0.00,meteobridge,2013-08-04 09:25:00,
2013-08-04 05:31:00,57.9,57.0,29.87,NNE,12,0.0,0.0,97,0.00,,,0.00,meteobridge,2013-08-04 09:31:00,
2013-08-04 05:36:00,57.9,57.0,29.87,NNE,12,0.0,0.0,97,0.00,,,0.00,meteobridge,2013-08-04 09:36:00,
2013-08-04 05:41:00,57.7,56.8,29.87,NNE,12,0.0,0.0,97,0.00,,,0.00,meteobridge,2013-08-04 09:41:00,
2013-08-04 05:46:00,57.7,56.8,29.87,NNE,12,0.0,0.0,97,0.00,,,0.00,meteobridge,2013-08-04 09:46:00,
2013-08-04 05:52:00,57.6,56.7,29.87,NNE,12,0.0,0.0,97,0.00,,,0.00,meteobridge,2013-08-04 09:52:00,
2013-08-04 05:58:00,57.6,56.7,29.87,NNE,12,0.0,0.0,97,0.00,,,0.00,meteobridge,2013-08-04 09:58:00,
2013-08-04 06:03:00,57.4,56.5,29.87,NNE,12,0.0,0.0,97,0.00,,,0.00,meteobridge,2013-08-04 10:03:00,
2013-08-04 06:08:00,57.4,56.5,29.87,NNE,12,0.0,0.0,97,0.00,,,0.00,meteobridge,2013-08-04 10:08:00,
2013-08-04 06:15:00,57.2,56.3,29.87,NNE,12,0.0,0.0,97,0.00,,,0.00,meteobridge,2013-08-04 10:15:00,
2013-08-04 06:20:00,57.0,56.1,29.87,NNE,12,0.0,0.0,97,0.00,,,0.00,meteobridge,2013-08-04 10:20:00,
2013-08-04 06:25:00,57.0,56.1,29.87,NNE,12,0.0,0.0,97,0.00,,,0.00,meteobridge,2013-08-04 10:25:00,
2013-08-04 06:31:00,57.0,56.5,29.88,NNE,12,0.0,0.0,98,0.00,,,0.00,meteobridge,2013-08-04 10:31:00,
2013-08-04 06:36:00,57.0,56.5,29.88,NNE,12,0.0,0.0,98,0.00,,,0.00,meteobridge,2013-08-04 10:36:00,
2013-08-04 06:41:00,57.0,56.5,29.88,NNE,12,0.0,0.0,98,0.00,,,0.00,meteobridge,2013-08-04 10:41:00,
2013-08-04 06:46:00,57.2,56.7,29.88,NNE,12,0.0,0.0,98,0.00,,,0.00,meteobridge,2013-08-04 10:46:00,
2013-08-04 06:53:00,57.4,56.8,29.88,NNE,12,0.0,0.0,98,0.00,,,0.00,meteobridge,2013-08-04 10:53:00,
2013-08-04 06:58:00,57.4,56.8,29.88,NNE,12,0.0,0.0,98,0.00,,,0.00,meteobridge,2013-08-04 10:58:00,
2013-08-04 07:03:00,57.6,57.0,29.88,NNE,12,0.0,0.9,98,0.00,,,0.00,meteobridge,2013-08-04 11:03:00,
2013-08-04 07:09:00,57.9,57.4,29.88,NNE,12,0.0,0.9,98,0.00,,,0.00,meteobridge,2013-08-04 11:09:00,
2013-08-04 07:14:00,58.1,57.7,29.88,NNE,12,0.0,0.0,99,0.00,,,0.00,meteobridge,2013-08-04 11:14:00,
2013-08-04 07:19:00,58.3,57.9,29.88,NNE,12,0.0,0.0,99,0.00,,,0.00,meteobridge,2013-08-04 11:19:00,
2013-08-04 07:24:00,58.5,58.1,29.88,NNE,12,0.0,0.0,99,0.00,,,0.00,meteobridge,2013-08-04 11:24:00,
2013-08-04 07:30:00,58.6,58.3,29.88,NNE,12,0.9,0.9,99,0.00,,,0.00,meteobridge,2013-08-04 11:30:00,
2013-08-04 07:35:00,58.8,58.5,29.88,NNE,12,0.0,0.9,99,0.00,,,0.00,meteobridge,2013-08-04 11:35:00,
2013-08-04 07:41:00,59.2,58.8,29.88,NNE,12,0.0,0.0,99,0.00,,,0.00,meteobridge,2013-08-04 11:41:00,
2013-08-04 07:46:00,59.5,59.2,29.88,NNE,12,0.0,0.9,99,0.00,,,0.00,meteobridge,2013-08-04 11:46:00,
2013-08-04 07:52:00,59.7,59.4,29.88,NNE,12,0.0,0.0,99,0.00,,,0.00,meteobridge,2013-08-04 11:52:00,
2013-08-04 07:57:00,59.9,59.5,29.88,NNW,347,0.0,0.0,99,0.00,,,0.00,meteobridge,2013-08-04 11:57:00,
2013-08-04 08:02:00,60.1,59.7,29.88,NNW,346,0.0,0.0,99,0.00,,,0.00,meteobridge,2013-08-04 12:02:00,
2013-08-04 08:07:00,60.3,59.9,29.88,NNW,347,0.0,0.0,99,0.00,,,0.00,meteobridge,2013-08-04 12:07:00,
2013-08-04 08:13:00,60.6,60.1,29.88,WNW,296,0.0,0.9,98,0.00,,,0.00,meteobridge,2013-08-04 12:13:00,
2013-08-04 08:18:00,61.0,59.9,29.88,West,270,0.0,2.9,96,0.00,,,0.00,meteobridge,2013-08-04 12:18:00,
2013-08-04 08:23:00,61.3,60.3,29.88,West,270,0.0,0.9,96,0.00,,,0.00,meteobridge,2013-08-04 12:23:00,
2013-08-04 08:28:00,61.9,60.4,29.88,West,270,0.0,0.0,95,0.00,,,0.00,meteobridge,2013-08-04 12:28:00,
2013-08-04 08:33:00,62.1,60.3,29.88,West,270,0.9,0.9,94,0.00,,,0.00,meteobridge,2013-08-04 12:33:00,
2013-08-04 08:39:00,62.6,60.6,29.88,SSW,192,0.0,0.9,93,0.00,,,0.00,meteobridge,2013-08-04 12:39:00,
2013-08-04 08:44:00,63.0,60.6,29.88,SSW,192,0.0,0.9,92,0.00,,,0.00,meteobridge,2013-08-04 12:44:00,
2013-08-04 08:49:00,63.3,59.7,29.88,West,261,0.9,2.9,88,0.00,,,0.00,meteobridge,2013-08-04 12:49:00,
2013-08-04 08:55:00,63.9,60.6,29.88,WNW,292,0.0,0.0,89,0.00,,,0.00,meteobridge,2013-08-04 12:55:00,
2013-08-04 09:00:00,64.4,60.1,29.88,West,279,2.0,2.9,86,0.00,,,0.00,meteobridge,2013-08-04 13:00:00,
2013-08-04 09:05:00,64.9,57.9,29.88,NE,36,0.0,6.0,78,0.00,,,0.00,meteobridge,2013-08-04 13:05:00,
2013-08-04 09:10:00,66.0,59.0,29.88,NW,320,0.9,2.0,78,0.00,,,0.00,meteobridge,2013-08-04 13:10:00,
2013-08-04 09:15:00,66.6,58.5,29.88,ENE,72,0.9,4.0,75,0.00,,,0.00,meteobridge,2013-08-04 13:15:00,
2013-08-04 09:20:00,67.1,58.8,29.88,NW,313,0.9,2.0,75,0.00,,,0.00,meteobridge,2013-08-04 13:20:00,
2013-08-04 09:26:00,67.5,58.8,29.88,WNW,282,0.0,4.9,74,0.00,,,0.00,meteobridge,2013-08-04 13:26:00,
2013-08-04 09:32:00,67.8,58.5,29.89,WNW,293,0.0,2.9,72,0.00,,,0.00,meteobridge,2013-08-04 13:32:00,
2013-08-04 09:37:00,67.8,58.8,29.88,NNW,331,2.0,2.0,73,0.00,,,0.00,meteobridge,2013-08-04 13:37:00,
2013-08-04 09:42:00,68.4,59.7,29.88,WNW,282,0.0,4.0,74,0.00,,,0.00,meteobridge,2013-08-04 13:42:00,
2013-08-04 09:47:00,68.5,58.8,29.88,West,272,0.9,2.9,71,0.00,,,0.00,meteobridge,2013-08-04 13:47:00,
2013-08-04 09:52:00,68.7,58.5,29.89,NNW,336,2.0,4.0,70,0.00,,,0.00,meteobridge,2013-08-04 13:52:00,
2013-08-04 09:58:00,69.1,57.2,29.88,NE,49,4.9,8.9,66,0.00,,,0.00,meteobridge,2013-08-04 13:58:00,
2013-08-04 10:03:00,69.4,58.5,29.88,NW,307,2.9,6.9,68,0.00,,,0.00,meteobridge,2013-08-04 14:03:00,
2013-08-04 10:09:00,69.4,58.5,29.88,NNE,29,0.9,6.0,68,0.00,,,0.00,meteobridge,2013-08-04 14:09:00,
2013-08-04 10:14:00,69.6,57.7,29.88,NNW,338,2.9,6.9,66,0.00,,,0.00,meteobridge,2013-08-04 14:14:00,
2013-08-04 10:19:00,69.8,57.6,29.88,NNE,17,6.9,6.9,65,0.00,,,0.00,meteobridge,2013-08-04 14:19:00,
2013-08-04 10:25:00,70.0,58.5,29.88,West,263,2.0,2.0,67,0.00,,,0.00,meteobridge,2013-08-04 14:25:00,
2013-08-04 10:30:00,70.2,58.6,29.88,WSW,257,2.0,4.9,67,0.00,,,0.00,meteobridge,2013-08-04 14:30:00,
2013-08-04 10:35:00,70.3,58.8,29.88,NNE,32,2.0,4.0,67,0.00,,,0.00,meteobridge,2013-08-04 14:35:00,
2013-08-04 10:41:00,70.5,59.0,29.88,NNW,340,0.0,2.9,67,0.00,,,0.00,meteobridge,2013-08-04 14:41:00,
2013-08-04 10:46:00,70.5,58.6,29.88,NNE,18,0.9,2.9,66,0.00,,,0.00,meteobridge,2013-08-04 14:46:00,
2013-08-04 10:51:00,70.9,58.5,29.88,NE,47,2.9,4.0,65,0.00,,,0.00,meteobridge,2013-08-04 14:51:00,
2013-08-04 10:56:00,71.1,57.4,29.88,NW,316,0.0,2.9,62,0.00,,,0.00,meteobridge,2013-08-04 14:56:00,
2013-08-04 11:02:00,71.1,58.3,29.88,NW,313,2.9,8.1,64,0.00,,,0.00,meteobridge,2013-08-04 15:02:00,
2013-08-04 11:07:00,71.1,58.6,29.88,NNE,18,0.0,2.0,65,0.00,,,0.00,meteobridge,2013-08-04 15:07:00,
2013-08-04 11:12:00,71.1,57.7,29.89,NW,320,0.0,6.0,63,0.00,,,0.00,meteobridge,2013-08-04 15:12:00,
2013-08-04 11:18:00,71.2,58.5,29.89,WNW,296,0.9,4.9,64,0.00,,,0.00,meteobridge,2013-08-04 15:18:00,
2013-08-04 11:23:00,71.4,59.0,29.89,West,264,2.0,4.0,65,0.00,,,0.00,meteobridge,2013-08-04 15:23:00,
2013-08-04 11:28:00,72.0,58.3,29.89,NNW,347,2.9,4.9,62,0.00,,,0.00,meteobridge,2013-08-04 15:28:00,
2013-08-04 11:33:00,72.0,58.3,29.89,WSW,248,4.9,8.1,62,0.00,,,0.00,meteobridge,2013-08-04 15:33:00,
2013-08-04 11:38:00,72.1,59.4,29.89,West,265,4.9,8.1,64,0.00,,,0.00,meteobridge,2013-08-04 15:38:00,
2013-08-04 11:44:00,72.3,58.6,29.89,NW,321,0.0,4.0,62,0.00,,,0.00,meteobridge,2013-08-04 15:44:00,
2013-08-04 11:49:00,72.3,59.0,29.89,NNW,342,2.9,8.1,63,0.00,,,0.00,meteobridge,2013-08-04 15:49:00,
2013-08-04 11:54:00,72.1,59.4,29.89,ENE,59,2.9,4.0,64,0.00,,,0.00,meteobridge,2013-08-04 15:54:00,
2013-08-04 12:00:00,72.7,59.7,29.89,WNW,289,2.0,6.0,64,0.00,,,0.00,meteobridge,2013-08-04 16:00:00,
2013-08-04 12:05:00,72.7,58.5,29.88,West,260,2.0,4.9,61,0.00,,,0.00,meteobridge,2013-08-04 16:05:00,
2013-08-04 12:11:00,72.7,58.5,29.89,NNE,31,4.9,6.9,61,0.00,,,0.00,meteobridge,2013-08-04 16:11:00,
2013-08-04 12:16:00,72.3,58.6,29.89,NNW,333,2.9,2.9,62,0.00,,,0.00,meteobridge,2013-08-04 16:16:00,
2013-08-04 12:21:00,72.3,59.5,29.89,WSW,252,6.9,6.9,64,0.00,,,0.00,meteobridge,2013-08-04 16:21:00,
2013-08-04 12:26:00,72.5,59.5,29.88,NNE,15,2.9,6.0,64,0.00,,,0.00,meteobridge,2013-08-04 16:26:00,
2013-08-04 12:32:00,72.9,58.6,29.88,WSW,238,2.0,4.9,61,0.00,,,0.00,meteobridge,2013-08-04 16:32:00,
2013-08-04 12:37:00,73.0,59.2,29.88,West,269,0.9,2.9,62,0.00,,,0.00,meteobridge,2013-08-04 16:37:00,
2013-08-04 12:43:00,73.2,58.5,29.88,NNW,345,2.0,4.9,60,0.00,,,0.00,meteobridge,2013-08-04 16:43:00,
2013-08-04 12:48:00,73.4,58.3,29.88,North,355,0.9,4.9,59,0.00,,,0.00,meteobridge,2013-08-04 16:48:00,
2013-08-04 12:53:00,73.2,59.9,29.87,NW,311,2.0,8.1,63,0.00,,,0.00,meteobridge,2013-08-04 16:53:00,
2013-08-04 12:58:00,73.2,59.9,29.87,North,10,0.0,2.0,63,0.00,,,0.00,meteobridge,2013-08-04 16:58:00,
2013-08-04 13:03:00,73.6,57.4,29.87,NE,39,0.0,2.9,57,0.00,,,0.00,meteobridge,2013-08-04 17:03:00,
2013-08-04 13:08:00,73.6,58.8,29.87,West,271,0.9,4.0,60,0.00,,,0.00,meteobridge,2013-08-04 17:08:00,
2013-08-04 13:14:00,73.2,58.5,29.87,ENE,67,4.0,4.9,60,0.00,,,0.00,meteobridge,2013-08-04 17:14:00,
2013-08-04 13:19:00,73.6,59.4,29.87,West,281,2.9,6.9,61,0.00,,,0.00,meteobridge,2013-08-04 17:19:00,
2013-08-04 13:24:00,73.6,59.4,29.87,West,269,4.0,8.1,61,0.00,,,0.00,meteobridge,2013-08-04 17:24:00,
2013-08-04 13:29:00,73.8,58.5,29.87,North,9,0.9,6.0,59,0.00,,,0.00,meteobridge,2013-08-04 17:29:00,
2013-08-04 13:35:00,74.1,58.8,29.87,WSW,243,8.1,12.1,59,0.00,,,0.00,meteobridge,2013-08-04 17:35:00,
2013-08-04 13:40:00,74.1,60.3,29.86,NW,311,0.9,6.9,62,0.00,,,0.00,meteobridge,2013-08-04 17:40:00,
2013-08-04 13:45:00,73.9,61.0,29.86,NW,315,0.9,6.0,64,0.00,,,0.00,meteobridge,2013-08-04 17:45:00,
2013-08-04 13:50:00,73.9,59.7,29.86,NW,307,0.9,8.1,61,0.00,,,0.00,meteobridge,2013-08-04 17:50:00,
2013-08-04 13:56:00,74.1,59.4,29.85,South,170,2.0,6.9,60,0.00,,,0.00,meteobridge,2013-08-04 17:56:00,
2013-08-04 14:01:00,74.5,57.7,29.85,NNE,32,2.9,8.1,56,0.00,,,0.00,meteobridge,2013-08-04 18:01:00,
2013-08-04 14:06:00,74.7,60.3,29.85,NW,320,0.9,4.9,61,0.00,,,0.00,meteobridge,2013-08-04 18:06:00,
2013-08-04 14:12:00,75.0,58.3,29.85,NNW,334,0.9,6.0,56,0.00,,,0.00,meteobridge,2013-08-04 18:12:00,
2013-08-04 14:17:00,75.2,58.5,29.85,NW,325,2.9,6.0,56,0.00,,,0.00,meteobridge,2013-08-04 18:17:00,
2013-08-04 14:22:00,74.7,57.9,29.85,NW,321,2.9,8.1,56,0.00,,,0.00,meteobridge,2013-08-04 18:22:00,
2013-08-04 14:28:00,74.1,59.7,29.85,NNW,340,0.9,6.9,61,0.00,,,0.00,meteobridge,2013-08-04 18:28:00,
2013-08-04 14:33:00,74.5,60.1,29.85,North,0,2.0,2.9,61,0.00,,,0.00,meteobridge,2013-08-04 18:33:00,
2013-08-04 14:38:00,74.7,57.9,29.85,North,5,2.9,6.0,56,0.00,,,0.00,meteobridge,2013-08-04 18:38:00,
2013-08-04 14:43:00,74.7,57.9,29.85,NW,305,2.0,6.9,56,0.00,,,0.00,meteobridge,2013-08-04 18:43:00,
2013-08-04 14:48:00,74.7,58.8,29.85,NNW,333,2.9,6.0,58,0.00,,,0.00,meteobridge,2013-08-04 18:48:00,
2013-08-04 14:53:00,74.8,59.0,29.84,NNW,333,2.0,2.0,58,0.00,,,0.00,meteobridge,2013-08-04 18:53:00,
2013-08-04 14:59:00,75.0,56.7,29.85,WNW,300,2.0,6.0,53,0.00,,,0.00,meteobridge,2013-08-04 18:59:00,
2013-08-04 15:04:00,75.4,57.6,29.85,WSW,248,4.9,6.0,54,0.00,,,0.00,meteobridge,2013-08-04 19:04:00,
2013-08-04 15:09:00,75.6,57.2,29.84,West,261,2.9,6.0,53,0.00,,,0.00,meteobridge,2013-08-04 19:09:00,
2013-08-04 15:15:00,75.9,57.6,29.84,West,278,8.9,8.9,53,0.00,,,0.00,meteobridge,2013-08-04 19:15:00,
2013-08-04 15:20:00,76.1,57.7,29.84,West,272,4.0,6.0,53,0.00,,,0.00,meteobridge,2013-08-04 19:20:00,
2013-08-04 15:26:00,76.5,57.6,29.84,West,261,2.9,6.0,52,0.00,,,0.00,meteobridge,2013-08-04 19:26:00,
2013-08-04 15:31:00,76.5,57.6,29.85,NNW,348,4.0,6.9,52,0.00,,,0.00,meteobridge,2013-08-04 19:31:00,
2013-08-04 15:36:00,76.6,57.2,29.84,ENE,57,2.0,6.0,51,0.00,,,0.00,meteobridge,2013-08-04 19:36:00,
2013-08-04 15:41:00,76.8,57.4,29.85,West,276,6.0,6.0,51,0.00,,,0.00,meteobridge,2013-08-04 19:41:00,
2013-08-04 15:47:00,76.8,57.9,29.84,West,271,0.9,8.1,52,0.00,,,0.00,meteobridge,2013-08-04 19:47:00,
2013-08-04 15:52:00,76.8,57.4,29.84,North,355,0.9,6.9,51,0.00,,,0.00,meteobridge,2013-08-04 19:52:00,
2013-08-04 15:57:00,76.6,57.2,29.84,WNW,296,4.9,8.9,51,0.00,,,0.00,meteobridge,2013-08-04 19:57:00,
2013-08-04 16:03:00,76.3,58.5,29.85,NW,315,0.9,4.0,54,0.00,,,0.00,meteobridge,2013-08-04 20:03:00,
2013-08-04 16:08:00,75.4,55.9,29.85,North,0,4.0,13.0,51,0.00,,,0.00,meteobridge,2013-08-04 20:08:00,
2013-08-04 16:13:00,74.1,55.4,29.86,NNE,18,2.9,8.1,52,0.00,,,0.00,meteobridge,2013-08-04 20:13:00,
2013-08-04 16:19:00,72.9,55.8,29.87,NNE,31,4.0,11.0,55,0.00,,,0.00,meteobridge,2013-08-04 20:19:00,
2013-08-04 16:24:00,71.2,57.6,29.88,NNE,28,4.0,8.9,62,0.00,,,0.00,meteobridge,2013-08-04 20:24:00,
2013-08-04 16:29:00,70.0,59.0,29.88,NW,310,2.0,4.9,68,0.00,,,0.00,meteobridge,2013-08-04 20:29:00,
2013-08-04 16:34:00,68.2,58.1,29.88,NW,320,2.9,6.9,70,0.00,,,0.00,meteobridge,2013-08-04 20:34:00,
2013-08-04 16:40:00,66.9,58.8,29.88,WNW,286,4.9,4.9,75,0.01,,,0.01,meteobridge,2013-08-04 20:40:00,
2013-08-04 16:45:00,65.8,59.2,29.88,West,281,2.9,4.0,79,0.02,,,0.02,meteobridge,2013-08-04 20:45:00,
2013-08-04 16:50:00,65.1,59.5,29.88,West,259,0.9,4.0,82,0.08,,,0.08,meteobridge,2013-08-04 20:50:00,
2013-08-04 16:55:00,64.8,60.1,29.88,South,184,0.0,2.0,85,0.11,,,0.11,meteobridge,2013-08-04 20:55:00,
2013-08-04 17:00:00,64.6,60.6,29.88,SSW,202,0.0,0.9,87,0.12,,,0.12,meteobridge,2013-08-04 21:00:00,
2013-08-04 17:06:00,64.4,61.2,29.88,WSW,256,2.9,2.9,89,0.12,,,0.12,meteobridge,2013-08-04 21:06:00,
2013-08-04 17:11:00,64.6,61.3,29.88,West,265,0.0,2.0,89,0.13,,,0.13,meteobridge,2013-08-04 21:11:00,
2013-08-04 17:17:00,64.8,61.5,29.88,West,275,0.9,2.0,89,0.13,,,0.13,meteobridge,2013-08-04 21:17:00,
2013-08-04 17:22:00,64.9,61.7,29.88,WNW,286,0.9,0.9,89,0.13,,,0.13,meteobridge,2013-08-04 21:22:00,
2013-08-04 17:27:00,65.5,61.5,29.88,WNW,286,0.0,2.0,87,0.13,,,0.13,meteobridge,2013-08-04 21:27:00,
2013-08-04 17:32:00,65.7,62.1,29.87,WSW,254,0.9,0.9,88,0.13,,,0.13,meteobridge,2013-08-04 21:32:00,
2013-08-04 17:37:00,65.8,62.4,29.87,WSW,254,0.0,0.9,89,0.12,,,0.13,meteobridge,2013-08-04 21:37:00,
2013-08-04 17:43:00,66.2,61.9,29.87,West,274,0.9,2.9,86,0.11,,,0.13,meteobridge,2013-08-04 21:43:00,
2013-08-04 17:48:00,66.6,62.2,29.87,West,270,0.0,2.0,86,0.06,,,0.13,meteobridge,2013-08-04 21:48:00,
2013-08-04 17:50:00,66.6,62.6,29.87,NW,306,2.0,4.0,87,0.04,,,0.13,meteobridge,2013-08-04 21:50:00,
2013-08-04 17:55:00,66.9,61.2,29.87,West,269,0.0,2.0,82,0.02,,,0.13,meteobridge,2013-08-04 21:55:00,
2013-08-04 18:01:00,67.3,61.0,29.88,WNW,298,0.0,0.9,80,0.01,,,0.13,meteobridge,2013-08-04 22:01:00,
2013-08-04 18:05:00,67.6,60.3,29.87,WSW,257,2.0,2.9,77,0.01,,,0.13,meteobridge,2013-08-04 22:05:00,
2013-08-04 18:11:00,68.2,61.3,29.87,North,355,0.9,4.9,79,0.00,,,0.13,meteobridge,2013-08-04 22:11:00,
2013-08-04 18:17:00,68.4,60.1,29.87,West,268,2.0,4.9,75,0.00,,,0.13,meteobridge,2013-08-04 22:17:00,
2013-08-04 18:22:00,68.5,60.6,29.87,West,281,0.9,2.0,76,0.00,,,0.13,meteobridge,2013-08-04 22:22:00,
2013-08-04 18:27:00,68.9,61.3,29.87,West,265,2.9,2.9,77,0.00,,,0.13,meteobridge,2013-08-04 22:27:00,
2013-08-04 18:32:00,69.1,61.2,29.88,WNW,289,0.0,2.0,76,0.00,,,0.13,meteobridge,2013-08-04 22:32:00,
2013-08-04 18:38:00,69.1,61.9,29.88,West,259,2.0,2.0,78,0.00,,,0.13,meteobridge,2013-08-04 22:38:00,
2013-08-04 18:43:00,69.3,61.0,29.88,West,269,4.0,4.9,75,0.00,,,0.13,meteobridge,2013-08-04 22:43:00,
2013-08-04 18:48:00,69.3,60.6,29.88,West,270,0.0,4.0,74,0.00,,,0.13,meteobridge,2013-08-04 22:48:00,
2013-08-04 18:54:00,69.3,61.0,29.88,WNW,284,2.0,4.9,75,0.00,,,0.13,meteobridge,2013-08-04 22:54:00,
2013-08-04 18:59:00,69.3,61.7,29.88,West,271,0.0,2.0,77,0.00,,,0.13,meteobridge,2013-08-04 22:59:00,
2013-08-04 19:05:00,69.1,61.2,29.88,West,275,0.0,2.0,76,0.00,,,0.13,meteobridge,2013-08-04 23:05:00,
2013-08-04 19:10:00,69.1,61.5,29.88,WSW,258,0.0,4.9,77,0.00,,,0.13,meteobridge,2013-08-04 23:10:00,
2013-08-04 19:15:00,69.1,61.5,29.88,West,281,4.9,4.9,77,0.00,,,0.13,meteobridge,2013-08-04 23:15:00,
2013-08-04 19:21:00,68.9,62.1,29.88,WNW,285,0.9,2.0,79,0.00,,,0.13,meteobridge,2013-08-04 23:21:00,
2013-08-04 19:26:00,68.5,61.7,29.88,WNW,289,0.0,2.0,79,0.00,,,0.13,meteobridge,2013-08-04 23:26:00,
2013-08-04 19:31:00,68.4,61.9,29.88,NW,306,0.9,2.0,80,0.00,,,0.13,meteobridge,2013-08-04 23:31:00,
2013-08-04 19:36:00,68.2,62.1,29.89,West,268,0.9,0.9,81,0.00,,,0.13,meteobridge,2013-08-04 23:36:00,
2013-08-04 19:42:00,67.8,62.1,29.89,West,263,0.9,2.0,82,0.00,,,0.13,meteobridge,2013-08-04 23:42:00,
2013-08-04 19:47:00,67.6,62.6,29.89,West,263,0.9,2.0,84,0.00,,,0.13,meteobridge,2013-08-04 23:47:00,
2013-08-04 19:52:00,67.3,62.6,29.90,West,263,2.0,2.0,85,0.00,,,0.13,meteobridge,2013-08-04 23:52:00,
2013-08-04 19:58:00,66.9,62.2,29.90,West,263,0.9,0.9,85,0.00,,,0.13,meteobridge,2013-08-04 23:58:00,
2013-08-04 20:03:00,66.7,62.1,29.90,West,275,0.9,0.9,85,0.00,,,0.00,meteobridge,2013-08-05 00:03:00,
2013-08-04 20:09:00,66.6,62.2,29.90,West,275,0.0,0.9,86,0.00,,,0.00,meteobridge,2013-08-05 00:09:00,
2013-08-04 20:14:00,66.4,62.1,29.90,West,275,0.9,0.9,86,0.00,,,0.00,meteobridge,2013-08-05 00:14:00,
2013-08-04 20:20:00,66.0,62.1,29.91,West,275,0.0,0.0,87,0.00,,,0.00,meteobridge,2013-08-05 00:20:00,
2013-08-04 20:25:00,65.8,61.9,29.91,West,275,0.0,0.0,87,0.00,,,0.00,meteobridge,2013-08-05 00:25:00,
2013-08-04 20:30:00,65.7,62.1,29.91,West,275,0.0,0.0,88,0.00,,,0.00,meteobridge,2013-08-05 00:30:00,
2013-08-04 20:36:00,65.5,61.9,29.91,West,275,0.0,0.0,88,0.00,,,0.00,meteobridge,2013-08-05 00:36:00,
2013-08-04 20:41:00,65.1,61.9,29.91,West,275,0.0,0.9,89,0.00,,,0.00,meteobridge,2013-08-05 00:41:00,
2013-08-04 20:46:00,64.9,61.7,29.92,West,275,0.0,0.9,89,0.00,,,0.00,meteobridge,2013-08-05 00:46:00,
2013-08-04 20:52:00,64.9,61.7,29.92,West,275,0.0,0.9,89,0.00,,,0.00,meteobridge,2013-08-05 00:52:00,
2013-08-04 20:58:00,64.8,61.7,29.93,West,275,0.0,0.9,90,0.00,,,0.00,meteobridge,2013-08-05 00:58:00,
2013-08-04 21:03:00,64.6,61.3,29.93,West,275,0.9,0.9,89,0.00,,,0.00,meteobridge,2013-08-05 01:03:00,
2013-08-04 21:09:00,64.4,61.3,29.93,WSW,246,2.9,2.9,90,0.00,,,0.00,meteobridge,2013-08-05 01:09:00,
2013-08-04 21:14:00,64.2,61.2,29.93,NW,321,0.0,4.9,90,0.00,,,0.00,meteobridge,2013-08-05 01:14:00,
2013-08-04 21:19:00,64.2,60.6,29.93,NW,315,0.0,0.9,88,0.00,,,0.00,meteobridge,2013-08-05 01:19:00,
2013-08-04 21:24:00,64.2,60.3,29.93,WNW,299,0.9,2.0,87,0.00,,,0.00,meteobridge,2013-08-05 01:24:00,
2013-08-04 21:30:00,64.2,59.4,29.94,WNW,284,0.0,0.9,84,0.00,,,0.00,meteobridge,2013-08-05 01:30:00,
2013-08-04 21:36:00,64.0,58.5,29.94,NNW,333,0.0,2.0,82,0.00,,,0.00,meteobridge,2013-08-05 01:36:00,
2013-08-04 21:41:00,64.0,59.4,29.94,NNW,334,0.0,0.0,85,0.00,,,0.00,meteobridge,2013-08-05 01:41:00,
2013-08-04 21:47:00,64.0,58.5,29.94,NNW,334,0.0,0.0,82,0.00,,,0.00,meteobridge,2013-08-05 01:47:00,
2013-08-04 21:52:00,64.0,58.8,29.95,NW,312,0.0,0.9,83,0.00,,,0.00,meteobridge,2013-08-05 01:52:00,
2013-08-04 21:58:00,63.9,59.0,29.95,NW,312,0.0,0.9,84,0.00,,,0.00,meteobridge,2013-08-05 01:58:00,
2013-08-04 22:03:00,63.7,58.8,29.95,NW,312,0.0,0.0,84,0.00,,,0.00,meteobridge,2013-08-05 02:03:00,
2013-08-04 22:08:00,63.7,57.7,29.95,West,273,0.0,2.0,81,0.00,,,0.00,meteobridge,2013-08-05 02:08:00,
2013-08-04 22:13:00,63.3,57.0,29.95,NW,313,0.0,2.0,80,0.00,,,0.00,meteobridge,2013-08-05 02:13:00,
2013-08-04 22:18:00,63.5,56.8,29.95,WNW,296,0.0,4.0,79,0.00,,,0.00,meteobridge,2013-08-05 02:18:00,
2013-08-04 22:23:00,63.5,55.8,29.95,NNW,328,0.9,2.0,76,0.00,,,0.00,meteobridge,2013-08-05 02:23:00,
2013-08-04 22:28:00,63.5,55.4,29.95,NNW,337,0.0,0.9,75,0.00,,,0.00,meteobridge,2013-08-05 02:28:00,
2013-08-04 22:34:00,63.7,55.2,29.95,NE,43,4.0,4.0,74,0.00,,,0.00,meteobridge,2013-08-05 02:34:00,
2013-08-04 22:39:00,63.7,54.1,29.95,North,5,0.9,2.0,71,0.00,,,0.00,meteobridge,2013-08-05 02:39:00,
2013-08-04 22:44:00,63.7,54.5,29.96,NNE,24,0.0,0.0,72,0.00,,,0.00,meteobridge,2013-08-05 02:44:00,
2013-08-04 22:50:00,63.7,54.1,29.96,North,5,0.0,2.0,71,0.00,,,0.00,meteobridge,2013-08-05 02:50:00,
2013-08-04 22:55:00,63.7,54.1,29.96,NNE,24,0.0,0.0,71,0.00,,,0.00,meteobridge,2013-08-05 02:55:00,
2013-08-04 23:00:00,63.3,54.5,29.96,NNE,32,0.0,2.0,73,0.00,,,0.00,meteobridge,2013-08-05 03:00:00,
2013-08-04 23:06:00,63.1,54.7,29.96,NNW,345,0.0,0.0,74,0.00,,,0.00,meteobridge,2013-08-05 03:06:00,
2013-08-04 23:11:00,62.8,55.0,29.96,NE,35,0.0,0.9,76,0.00,,,0.00,meteobridge,2013-08-05 03:11:00,
2013-08-04 23:17:00,62.4,55.0,29.96,NNE,19,0.0,0.0,77,0.00,,,0.00,meteobridge,2013-08-05 03:17:00,
2013-08-04 23:22:00,62.1,54.3,29.96,NE,36,0.0,2.0,76,0.00,,,0.00,meteobridge,2013-08-05 03:22:00,
2013-08-04 23:27:00,61.9,54.3,29.96,NE,36,0.0,0.0,76,0.00,,,0.00,meteobridge,2013-08-05 03:27:00,
2013-08-04 23:32:00,61.5,54.7,29.97,NE,36,0.0,0.0,78,0.00,,,0.00,meteobridge,2013-08-05 03:32:00,
2013-08-04 23:37:00,61.3,55.4,29.97,NE,36,0.0,0.0,81,0.00,,,0.00,meteobridge,2013-08-05 03:37:00,
2013-08-04 23:42:00,61.0,55.0,29.97,NE,36,0.0,0.0,81,0.00,,,0.00,meteobridge,2013-08-05 03:42:00,
2013-08-04 23:48:00,60.6,55.0,29.97,NE,36,0.0,0.0,82,0.00,,,0.00,meteobridge,2013-08-05 03:48:00,
2013-08-04 23:53:00,60.4,54.9,29.96,NE,36,0.0,0.0,82,0.00,,,0.00,meteobridge,2013-08-05 03:53:00,
2013-08-04 23:58:00,60.1,54.0,29.96,NE,36,0.0,0.0,80,0.00,,,0.00,meteobridge,2013-08-05 03:58:00,